Terug naar catalogus

COSMOS 1818 COOLANT

LostLEO
NORAD 36937·DEBRIS·🇷🇺 Russia

Gelanceerd Feb 1, 1987 vanaf Baikonur Cosmodrome

Loading…

Volgende Passages (komende 24 uur)

TLE

VerouderdSource: Space-Track

Epoch: Sep 30, 2022, 17:47 UTC

1 36937U 87011R   22273.74130704  .00000727  00000-0  29132-3 0  9993
2 36937  65.0146  43.0267 0014947 254.6628 105.2807 14.34723512708462

Volg COSMOS 1818 COOLANT in realtime met AllMySat

Download on the App Store